Location: Chèvreville
(49.1099°N, 2.8495°E)
Time: 18:10:46
(UTC+00:00)

NOSS 2-1 (D) - Pass Details

Date: 28 January 2023
Orbit: 418 x 1759 km, 63.3° (Epoch: 23 March)

Event Time Altitude Azimuth Distance (km) Brightness Sun altitude
Rises 17:09:49 0° 321° (NW) 2,578 7.0 -5.5°
Reaches altitude 10° 17:11:49 10° 330° (NNW) 1,797 6.1 -5.8°
Maximum altitude 17:15:35 41° 42° (NE) 936 4.1 -6.4°
Drops below altitude 10° 17:20:36 10° 112° (ESE) 2,397 6.1 -7.2°
Sets 17:23:39 0° 119° (ESE) 3,570 7.1 -7.6°
